Regional Weather Roundup
Issued by NWS San Diego, CA

Home | Current Version | Previous Version | Text Only | Print | Product List | Glossary On
Versions: 1 2 3 4 5 6 7 8 9 10 11 12 13 14 15 16 17 18 19 20 21 22 23 24 25 26 27 28 29 30 31 32 33 34 35 36 37 38 39 40 41 42 43 44 45 46 47 48 49 50
000
ASUS46 KSGX 270811
RWRSGX

SAN DIEGO HOURLY WEATHER ROUNDUP
NATIONAL WEATHER SERVICE SAN DIEGO CA
100 AM PDT SAT MAY 27 2017

NOTE: "FAIR" INDICATES FEW OR NO CLOUDS BELOW 12,000 FEET WITH NO
SIGNIFICANT WEATHER AND/OR OBSTRUCTIONS TO VISIBILITY.

CAZ042-043-060-061-PZZ750-775-270900-

GREATER SAN DIEGO AREA

CITY           SKY/WX    TMP DP  RH WIND       PRES   REMARKS
SAN DIEGO AP   MOCLDY    63  56  78 N5        30.04F
NATIONAL CITY    N/A     63  56  78 CALM      30.04S
CHULA VISTA      N/A     62  56  82 NW2       29.96S
IMPERIAL BEACH MOCLDY    62  56  80 NW3       30.04S
BROWN FIELD    CLOUDY    61  54  77 NW3       30.03S
MIRAMAR MCAS   CLOUDY    63  53  70 NW6       30.03S
MONTGOMERY FLD CLOUDY    61  52  72 NW6       30.03F

$$

NORTH SAN DIEGO COUNTY

CITY           SKY/WX    TMP DP  RH WIND       PRES   REMARKS
CAMP PENDLETON CLOUDY    57  52  83 NE3       30.03S
OCEANSIDE AP   CLOUDY    61  55  81 CALM      30.02S
OCEANSIDE HBR    N/A     61  56  84 CALM      30.05S
VISTA            N/A     60  55  82 CALM      30.00S
CARLSBAD       CLOUDY    62  55  77 CALM      30.02S
DEL MAR          N/A     58  55  91 CALM      30.05S
LA JOLLA SCRIP   N/A     60  57  89 NW1       30.02F
FALLBROOK        N/A     59  57  93 CALM      30.04S
ESCONDIDO        N/A     61  53  75 W3        30.04S
SAN MARCOS       N/A     60  54  81 CALM      30.04S
POWAY            N/A     61  51  70 CALM      30.04S

$$

EAST SAN DIEGO COUNTY

CITY           SKY/WX    TMP DP  RH WIND       PRES   REMARKS
RAMONA         CLOUDY    58  50  75 W5        30.03S
SANTEE LAKES     N/A     61  54  76 CALM      30.02S
LA MESA          N/A     60  53  79 CALM      29.96S
JAMUL            N/A     58  52  79 CALM      30.02F
DESCANSO N       N/A     48  46  92 CALM      29.97S
CAMPO            N/A     46  45  96 N3        30.00F

$$

ORANGE COUNTY AND THE LOS ANGELES BASIN

CITY           SKY/WX    TMP DP  RH WIND       PRES   REMARKS
JOHN WAYNE AP  CLEAR     61  55  81 W3        30.03S
LAKE FOREST FR   N/A     56  48  76 CALM      29.92S
HUNTINGTON BCH   N/A     60  56  88 W6        30.04S
LOS ALAMITOS   FAIR      57  51  80 NW3       30.02S
FULLERTON      CLEAR     60  53  77 CALM      30.02S
LONG BEACH     CLEAR     60  52  74 NW6       30.03S
L.A. AP        PTCLDY    59  54  83 W10       30.02S
L.A. DOWNTOWN  CLEAR     61  55  81 CALM      30.02S

$$

THE INLAND EMPIRE

CITY           SKY/WX    TMP DP  RH WIND       PRES   REMARKS
CORONA         CLOUDY    60  50  69 NW5       30.03S
CHINO          CLOUDY    60  49  66 W5        30.04S
ONTARIO        MOCLDY    59  48  67 W5        30.02F
SAN BERNARDINO CLOUDY    62  48  60 W6        30.04S
RIVERSIDE AP   CLOUDY    60  50  69 W5        30.03S
MORENO VALLEY    N/A     58  53  86 W3        28.14S
MARCH ARB      CLOUDY    58  49  73 NW6       30.03S
HORSETHIEF CYN   N/A     59  47  66 CALM      30.02S
PERRIS           N/A     58  52  82 S3        30.04R
HEMET EAST       N/A     57  46  67 CALM      30.06S
FRENCH VALLEY  CLOUDY    57  48  72 CALM      30.04S
TEMECULA         N/A     57  52  82 CALM      30.09S

$$

SAN BERNARDINO AND RIVERSIDE COUNTY MOUNTAINS

CITY           SKY/WX    TMP DP  RH WIND       PRES   REMARKS
BIG BEAR AP    CLEAR     37  10  32 CALM      30.13S
ANGELUS OAKS     N/A     47  18  30 CALM      29.92S
PINE COVE        N/A     56   2  11 N3        29.91F

$$

SOUTHERN DESERT INCLUDING THE COACHELLA VALLEY

CITY           SKY/WX    TMP DP  RH WIND       PRES   REMARKS
PALM SPRINGS   CLEAR     72  47  40 NW13      29.85R
PALM DESERT      N/A     68  50  52 CALM      27.46S
THERMAL        CLEAR     70  49  47 NW16G25   29.81S
BLYTHE         CLEAR     76  46  34 S16       29.80F
IMPERIAL AP    LGT RAIN  71  44  37 NW10      29.81S
EL CENTRO NAS  CLEAR     71  42  35 W12       29.84R
YUMA AZ        CLEAR     72  52  49 S8        29.84S
MEXICALI       CLEAR     73  52  46 E6        29.84S

$$

UPPER DESERT

CITY           SKY/WX    TMP DP  RH WIND       PRES   REMARKS
VICTORVILLE AP CLEAR     48  43  81 CALM      29.98S
HESPERIA         N/A     54  44  69 W7        30.05R
PALMDALE       CLEAR     58  41  53 W13       29.98S
LANCASTER      CLEAR     55  47  74 SW21      29.98S
EDWARDS AFB    CLEAR     55  46  71 SW15      29.93S
DAGGETT        CLEAR     62  43  49 W15       29.93R
29 PALMS N     CLEAR     69  29  22 NW7       29.95R
NEEDLES        CLEAR     83  35  18 NE5       29.80S

$$

REGIONAL REPORTS

CITY           SKY/WX    TMP DP  RH WIND       PRES   REMARKS
SANTA BARBARA  CLEAR     56  55  97 CALM      30.01S
SANDBERG       CLEAR     48  46  93 SW7       30.06S FOG
LAS VEGAS NV   CLEAR     78  21  12 SW13      29.81R
PHOENIX AZ     CLEAR     78  30  17 SE8       29.86R
TIJUANA        MOCLDY    61  50  67 CALM      30.05S
ENSENADA NW      N/A     60  32  34 N6        30.00F

$$

OFFSHORE ISLANDS

CITY           SKY/WX    TMP DP  RH WIND       PRES   REMARKS
CATALINA ARPT  CLOUDY    53  52  96 W7        30.04S
SAN NICOLAS IS CLOUDY    54 N/A N/A NW9       30.04S

$$

MARINE AND OFFSHORE BUOY REPORTS

STATION/POSITION SKY/WX   TEMP    WIND        PRES    VSBY  SWELL
                          AIR SEA DIR/SP/G                  HT/PER/DIR
                          (F)     (DEG/KT/KT) (MB)    (MI)  (FT/S/D)
TANNER BANKS               59 60  310/ 10/ 12 1017.1F         3/320/10
S CLEMENTE BASIN           61 63  310/  8/  8 1017.2F         3/ 70/14
SAN NICOLAS IS.               59                N/A           3/260/11
SO. S. ROSA ISLA           56 58  310/ 12/ 14 1017.0S         3/300/11
W. S. BARBARA CH           55 56  300/ 12/ 14 1016.6R
M. S. BARBARA CH           57 57  250/ 10/ 12 1017.0S         2/260/11
S. MONICA BASIN            60 63  270/  2/  4 1016.5S         3/200/11
S PEDRO CHANNEL               63                N/A           2/270/11
CMP PENDLETON NS              63                N/A           2/210/14
OCEANSIDE OFFSHR              63                N/A           3/200/13
TORREY PINES OTR              62                N/A           2/210/14
SAN DIEGO BAY                 67              1017.1F
POINT LOMA SOUTH              64                N/A           3/200/14

$$





USA.gov is the U.S. government's official web portal to all federal, state and local government web resources and services.